STARLINK-31910, 59664

Orbit data source: Space-Track

STARLINK-31910, 59664 is a payload satellite owned by SpaceX/Seattle (US) in LEO that was launched on Mon, 06 May 2024 UTC via an FALCON 9 launch vehicle from the Air Force Eastern Test Range (AFETR). Payload-class satellites include a variety of spacecraft equipped with specific instruments for various scientific and technological missions. These include communications satellites like Starlink; space stations such as the ISS; scientific satellites like the Hubble; Earth observation satellites from companies like Planet Labs, Umbra, and HawkEye 360; GPS; miniature CubeSats for education and research; and military/defense satellites.

Loading next visibility...
Identifier
59664, 2024-084L
Orbit
LEO
Country
Flag of USUS
Related business
Manufacturer
SpaceX/Seattle
Mission
Operational Commercial Communications
Bus & Motor
STARLINK V2M, Unknown motor
Mass
730 kg wet, ~700 kg dry
Launch date (UTC)
2024-05-06 (2 years ago)
Launch vehicle
FALCON 9
Launch site
Air Force Eastern Test Range (AFETR)
Object type
Payload
Rocket body
Debris
Shape & HBR
Box + 2 Pan, 17.7 m
Radar Cross Section
33.884 m², Large (>1 m²)

Expand to show TLE details & history
Last TLE update: 15 hours ago

TLE from 15 hours ago
0 STARLINK-31910
1 59664U 24084L   26073.12246297  .00004035  00000-0  15601-3 0  9997
2 59664  43.0014  16.5395 0000907 229.1620 130.9153 15.27587670105052
Epoch: 2026-03-14T02:56Z
TLE epoch observation values (Epoch: 2026-03-14T02:56:20.800Z)
Latitude
-0.00003°
Longitude
160.70462°
Altitude
483.209 km
Speed
7.625 km/s
True Right ascension
01h 06m 09s
True Declination
0° 00' 00"
Sunlit
Object was in daylight at epoch
Visualization orbit readout
Latitude
Unknown
Longitude
Unknown
Altitude
Unknown
Speed
Unknown
Apparent Right ascension
Unknown
Apparent Declination
Unknown
Sunlit
N/A
Visualization observer readout
Local Sidereal Time
22:37:02
Azimuth
Unknown
Elevation
Unknown
Doppler factor
Unknown
Orbital elements
Apogee altitude
485.594 km
Perigee altitude
484.349 km
Semi-major axis
6,863.108 km
Eccentricity
0.00009
Inclination
43.0014°
RAAN
16.5395°
Arg. of periapsis
229.162°
True anomaly
130.92315°
Mean anomaly
130.9153°
Eccentric anomaly
130.91923°
Mean motion
3.81735 °/min
Orbital period
94.31 mins
BSTAR
0.00015601
Loading maneuver chart data...
Computing Atmospheric mass density...
Loading historical data...
Loading historical data...
Loading historical data...
Loading historical data...
Loading historical data...
Loading historical data...
Loading historical data...

Documentation

Showing up to 5 results
|